Kelso-Longview, WA
on Tuesday, January 1, 2013

Tuesday
Previous Day Next Day
Daily Summary
 ActualAverage (KSPB)Record (KSPB)
Temperature
Mean Temperature °F °F  
Max Temperature 33°F °F 52°F (2012)
Min Temperature 28°F °F 19°F (2011)
Degree Days
Heating Degree Days 34    
Month to date heating degree days  
Since 1 July heating degree days  
Cooling Degree Days 0    
Month to date cooling degree days  
Year to date cooling degree days  
Moisture
Dew Point 29°F   
Average Humidity 85    
Maximum Humidity 93    
Minimum Humidity 80    
Precipitation
Precipitation 0.00 in in 2.12 in (2009)
Month to date precipitation  
Year to date precipitation  
Wind
Wind Speed 1 mph   
Max Wind Speed 6 mph   
Max Gust Speed mph   
Visibility 9 miles   
Events     

Key: T is trace of precipitation, MM is missing value
Source: NWS Daily Summary
Time(PST)TemperatureDew PointHumidity Pressure Visibility Wind DirectionWind SpeedGust SpeedPrecipitationEvents Conditions
12:15 AM 33.8°F 30.2°F 87% 30.45 in 10.0 miles SE 3.5 mph - N/A   Overcast
12:35 AM 33.8°F 30.2°F 87% 30.45 in 10.0 miles Calm Calm - N/A   Overcast
12:55 AM 33.8°F 30.2°F 87% 30.45 in 10.0 miles Calm Calm - N/A   Overcast
1:15 AM 33.8°F 30.2°F 87% 30.45 in 10.0 miles Calm Calm - N/A   Overcast
1:35 AM 33.8°F 30.2°F 87% 30.45 in 10.0 miles Calm Calm - N/A   Overcast
2:15 AM 33.8°F 30.2°F 87% 30.46 in 10.0 miles Calm Calm - N/A   Overcast
2:35 AM 33.8°F 30.2°F 87% 30.47 in 10.0 miles NNE 3.5 mph - N/A   Overcast
3:15 AM 33.8°F 30.2°F 87% 30.47 in 10.0 miles East 3.5 mph - N/A   Overcast
3:35 AM 33.8°F 30.2°F 87% 30.46 in 10.0 miles Calm Calm - N/A   Overcast
4:15 AM 33.8°F 30.2°F 87% 30.45 in 10.0 miles Calm Calm - N/A   Overcast
4:35 AM 33.8°F 30.2°F 87% 30.44 in 10.0 miles Calm Calm - N/A   Overcast
5:15 AM 33.8°F 28.4°F 81% 30.45 in 10.0 miles Calm Calm - N/A   Overcast
5:35 AM 33.8°F 28.4°F 81% 30.46 in 10.0 miles Calm Calm - N/A   Overcast
5:55 AM 33.8°F 28.4°F 81% 30.46 in 10.0 miles Calm Calm - N/A   Overcast
6:15 AM 33.8°F 28.4°F 81% 30.47 in 10.0 miles Calm Calm - N/A   Overcast
6:35 AM 33.8°F 28.4°F 81% 30.46 in 10.0 miles Calm Calm - N/A   Overcast
6:55 AM 33.8°F 28.4°F 81% 30.45 in 10.0 miles Calm Calm - N/A   Overcast
7:15 AM 32.0°F 28.4°F 87% 30.46 in 10.0 miles ESE 3.5 mph - N/A   Overcast
7:35 AM 32.0°F 28.4°F 87% 30.45 in 10.0 miles ESE 5.8 mph - N/A   Overcast
7:55 AM 32.0°F 28.4°F 87% 30.46 in 10.0 miles East 3.5 mph - N/A   Overcast
8:15 AM 32.0°F 28.4°F 87% 30.47 in 10.0 miles Calm Calm - N/A   Overcast
8:35 AM 32.0°F 28.4°F 87% 30.47 in 10.0 miles Calm Calm - N/A   Overcast
8:55 AM 32.0°F 28.4°F 87% 30.47 in 10.0 miles Calm Calm - N/A   Overcast
9:15 AM 32.0°F 26.6°F 80% 30.48 in 10.0 miles Calm Calm - N/A   Overcast
9:35 AM 32.0°F 26.6°F 80% 30.48 in 10.0 miles Calm Calm - N/A   Overcast
9:55 AM 32.0°F 26.6°F 80% 30.49 in 10.0 miles Calm Calm - N/A   Overcast
10:15 AM 33.8°F 28.4°F 81% 30.50 in 10.0 miles West 3.5 mph - N/A   Overcast
10:35 AM 33.8°F 28.4°F 81% 30.50 in 10.0 miles Calm Calm - N/A   Overcast
10:55 AM 33.8°F 28.4°F 81% 30.49 in 10.0 miles NW 3.5 mph - N/A   Overcast
11:15 AM 33.8°F 28.4°F 81% 30.49 in 10.0 miles Calm Calm - N/A   Overcast
11:35 AM 33.8°F 28.4°F 81% 30.47 in 10.0 miles Calm Calm - N/A   Overcast
12:15 PM 33.8°F 30.2°F 87% 30.45 in 10.0 miles Calm Calm - N/A   Overcast
12:35 PM 33.8°F 30.2°F 87% 30.45 in 10.0 miles WNW 4.6 mph - N/A   Overcast
12:55 PM 33.8°F 30.2°F 87% 30.44 in 10.0 miles Calm Calm - N/A   Overcast
1:15 PM 33.8°F 30.2°F 87% 30.43 in 10.0 miles Calm Calm - N/A   Overcast
1:35 PM 33.8°F 30.2°F 87% 30.43 in 10.0 miles Calm Calm - N/A   Overcast
2:15 PM 33.8°F 30.2°F 87% 30.43 in 10.0 miles Calm Calm - N/A   Overcast
2:35 PM 33.8°F 30.2°F 87% 30.42 in 10.0 miles Calm Calm - N/A   Overcast
3:15 PM 33.8°F 30.2°F 87% 30.42 in 10.0 miles Calm Calm - N/A   Overcast
3:35 PM 33.8°F 30.2°F 87% 30.42 in 10.0 miles Calm Calm - N/A   Overcast
3:55 PM 33.8°F 30.2°F 87% 30.41 in 10.0 miles NE 3.5 mph - N/A   Overcast
4:15 PM 33.8°F 30.2°F 87% 30.42 in 10.0 miles Calm Calm - N/A   Overcast
4:35 PM 33.8°F 30.2°F 87% 30.42 in 10.0 miles NNW 3.5 mph - N/A   Overcast
4:55 PM 33.8°F 30.2°F 87% 30.42 in 10.0 miles NE 3.5 mph - N/A   Overcast
5:15 PM 33.8°F 30.2°F 87% 30.42 in 10.0 miles NW 3.5 mph - N/A   Overcast
5:35 PM 33.8°F 28.4°F 81% 30.42 in 10.0 miles Calm Calm - N/A   Overcast
5:55 PM 33.8°F 28.4°F 81% 30.41 in 10.0 miles Calm Calm - N/A   Overcast
6:15 PM 33.8°F 28.4°F 81% 30.41 in 10.0 miles Calm Calm - N/A   Overcast
6:35 PM 33.8°F 28.4°F 81% 30.40 in 10.0 miles Calm Calm - N/A   Overcast
6:55 PM 33.8°F 28.4°F 81% 30.41 in 10.0 miles Calm Calm - N/A   Overcast
7:15 PM 33.8°F 28.4°F 81% 30.40 in 10.0 miles Calm Calm - N/A   Overcast
7:35 PM 33.8°F 28.4°F 81% 30.40 in 10.0 miles ENE 3.5 mph - N/A   Overcast
7:55 PM 33.8°F 28.4°F 81% 30.40 in 10.0 miles Calm Calm - N/A   Overcast
8:15 PM 33.8°F 28.4°F 81% 30.39 in 10.0 miles Calm Calm - N/A   Overcast
8:35 PM 33.8°F 28.4°F 81% 30.38 in 8.0 miles SE 3.5 mph - N/A   Overcast
8:55 PM 33.8°F 28.4°F 81% 30.38 in 8.0 miles SSE 3.5 mph - N/A   Overcast
9:15 PM 33.8°F 28.4°F 81% 30.38 in 8.0 miles SSE 3.5 mph - N/A   Mostly Cloudy
9:35 PM 32.0°F 28.4°F 87% 30.37 in 10.0 miles Calm Calm - N/A   Partly Cloudy
9:55 PM 30.2°F 28.4°F 93% 30.38 in 9.0 miles Calm Calm - N/A   Clear
10:15 PM 30.2°F 26.6°F 86% 30.37 in 7.0 miles Calm Calm - N/A   Clear
10:35 PM 30.2°F 26.6°F 86% 30.37 in 5.0 miles Calm Calm - N/A   Clear
10:55 PM 28.4°F 26.6°F 93% 30.37 in 4.0 miles Calm Calm - N/A   Clear
11:15 PM 28.4°F 26.6°F 93% 30.36 in 5.0 miles NW 3.5 mph - N/A   Clear
11:35 PM 28.4°F 26.6°F 93% 30.37 in 4.0 miles Calm Calm - N/A   Clear
11:55 PM 28.4°F 26.6°F 93% 30.36 in 4.0 miles North - - N/A   Clear
Moon Phase
Jan. 01 Jan. 04 Jan. 11 Jan. 18 Jan. 26
Sunrise:07:54 AM (PST) Moon Rise:09:30 PM (PST)1/1
Sunset:04:36 PM (PST) Moon Set:09:54 AM (PST)1/1

Copyright © 2014 The Weather Underground, Inc.